Wind_Speed
14 11 10 10 13 14 14 18 20 23 26 27 30 32 33 31 32 33 30 31 33 31 31 34 32 33 42 49 44 47 56 64 61 56 70 90 73 71 80 74 79 77 67 70 47 36 35
12 9 12 17 17 17 19 24 25 25 27 30 30 32 32 32 31 31 29 28 26 25 26 28 31 31 31 34 37 38 38 46 53 48 55 49 44 46 47 50 43 37 28 28 20 15 13
8 11 19 19 21 23 27 26 27 29 27 27 27 27 27 27 25 22 21 20 19 18 20 22 22 22 26 28 29 29 28 29 29 29 26 26 23 23 18 26 21 25 18 11 6 7 9
12 20 26 28 31 33 33 34 35 32 31 30 29 28 28 26 25 24 22 21 20 17 14 16 17 17 18 18 17 17 20 19 23 23 20 17 11 12 9 10 11 8 3 9 11 13 13
22 29 30 34 35 36 33 33 34 33 33 32 31 29 28 27 25 22 19 15 12 14 15 13 11 10 10 11 13 15 16 16 10 12 9 9 8 7 6 6 9 10 12 16 16 17 11
29 31 34 34 36 29 33 30 36 35 33 30 28 25 24 23 20 16 13 14 13 11 9 8 8 7 9 11 13 15 15 14 12 8 7 9 8 7 10 10 9 11 15 18 14 13 10
38 39 39 38 35 33 31 32 31 30 27 26 25 22 19 16 15 13 13 14 11 9 7 7 6 6 7 11 13 14 16 15 11 7 6 8 9 10 9 12 14 14 14 13 15 14 15
36 40 41 31 34 37 36 33 29 22 22 20 20 19 15 14 12 14 16 16 13 9 6 6 6 6 8 10 10 11 14 16 12 10 11 11 12 12 9 9 8 10 14 15 14 15 19
34 32 34 43 34 32 26 26 22 17 14 17 17 17 16 17 18 18 18 13 9 6 5 5 7 7 9 10 12 13 16 18 19 13 10 13 15 13 13 12 13 15 18 20 22 20 23
32 33 35 37 31 30 28 22 19 17 17 20 21 21 19 17 17 16 14 10 7 6 7 8 9 9 11 14 15 15 17 20 21 19 15 14 16 18 16 17 20 20 21 24 26 28 30
33 36 35 34 36 31 27 24 18 18 20 27 26 22 21 21 19 16 11 7 6 7 9 9 10 12 15 14 15 17 17 20 21 22 20 14 15 16 18 21 22 22 23 27 28 29 29
31 37 35 37 32 29 25 22 19 16 25 29 25 23 20 17 13 10 8 8 9 10 9 10 12 11 11 14 15 16 18 19 23 24 24 20 17 16 16 20 23 24 23 23 22 22 24
35 38 39 38 35 30 29 23 22 20 25 27 21 18 17 15 14 11 10 11 12 9 8 11 12 13 13 14 17 19 18 18 21 25 26 26 21 19 17 20 21 23 22 21 24 27 28
40 40 41 42 37 33 30 26 25 25 25 28 21 18 18 16 14 13 14 12 12 10 11 11 13 15 15 14 15 16 19 18 20 22 23 27 27 22 21 20 20 20 23 25 25 29 33
43 44 41 40 35 36 34 28 25 28 30 31 25 18 17 15 14 13 13 12 10 11 12 12 13 15 14 15 17 14 16 18 19 20 24 25 26 24 23 22 21 21 22 24 27 31 35
46 47 46 41 38 40 37 30 23 28 30 29 24 19 16 16 16 14 13 12 12 11 11 11 13 13 12 15 15 17 17 17 19 20 21 24 26 26 25 24 26 26 26 30 34 37 41
51 51 47 43 41 41 35 31 26 32 31 28 24 20 19 17 15 13 14 14 11 12 13 12 12 14 14 15 15 14 12 13 14 16 21 25 27 28 29 31 32 33 35 38 43 46 46
55 53 50 47 44 43 40 34 33 35 32 29 26 23 22 21 18 16 15 14 14 13 13 14 15 14 14 15 15 16 15 11 10 14 14 25 29 29 31 34 37 38 41 44 40 36 37
53 51 53 52 51 49 43 37 38 39 36 32 29 26 23 23 23 21 19 18 18 17 14 13 14 14 15 15 15 16 16 13 11 12 13 17 22 27 31 36 41 42 39 34 34 39 42
53 52 50 53 58 49 43 41 42 40 39 36 33 29 27 26 24 26 24 23 23 20 19 18 17 19 20 18 18 17 17 18 17 16 17 20 21 21 22 24 30 36 37 40 43 46 46
55 54 55 57 54 48 44 44 44 43 41 40 36 34 30 29 28 27 28 28 27 25 23 22 23 25 26 26 26 24 24 25 26 25 24 26 28 29 32 33 36 42 44 49 49 49 47
59 59 60 56 53 50 46 45 45 46 45 44 40 38 36 33 31 30 29 30 30 29 29 27 25 27 28 29 31 32 33 33 33 32 30 31 30 32 38 37 40 47 46 47 50 53 55
60 60 61 59 57 52 48 47 46 46 48 47 45 42 40 36 34 32 32 33 34 32 33 34 33 32 32 31 34 34 32 30 33 35 34 34 32 36 42 44 46 50 48 51 55 59 60
60 62 63 61 60 56 53 51 49 47 47 46 45 44 42 38 37 37 37 35 35 36 38 36 37 36 36 35 34 34 34 34 36 36 39 41 40 44 45 45 48 61 54 57 60 64 69
60 64 66 65 62 58 55 52 51 49 49 48 48 46 44 44 44 43 43 42 41 41 43 43 42 42 40 40 39 39 39 38 38 41 42 43 46 47 49 49 51 66 63 66 66 67 74
60 63 66 67 64 62 59 56 53 52 52 51 51 50 49 48 47 46 47 46 46 46 45 46 44 43 42 41 40 39 38 41 42 45 49 48 50 53 55 57 60 70 70 70 74 73 78
59 62 64 66 67 65 62 59 57 55 54 53 53 53 53 52 51 49 49 50 50 49 48 47 46 46 47 45 45 45 45 44 44 49 51 55 56 59 62 66 67 72 74 78 80 80 83
60 60 63 64 65 64 64 63 61 59 58 57 57 57 56 55 56 56 57 55 54 52 50 49 49 50 47 47 46 46 47 49 49 51 56 59 61 64 67 73 77 80 79 82 85 87 92
62 59 57 61 65 65 66 65 64 63 63 63 62 60 60 58 56 56 56 56 54 51 52 51 50 50 50 50 50 49 50 53 54 54 62 63 70 71 78 77 83 83 84 88 92 93 98
Wind_Direction
282 243 210 162 158 155 158 157 152 153 157 160 167 176 180 180 190 195 204 211 218 224 232 238 249 251 253 259 266 272 269 271 268 285 272 279 278 281 281 282 278 281 278 277 281 283 284
267 197 159 154 139 136 145 133 139 138 144 156 160 166 171 178 186 195 205 213 219 225 237 246 250 256 260 262 268 273 273 277 273 274 268 267 272 267 277 281 279 275 266 271 276 276 256
193 165 159 163 141 136 124 127 130 127 134 145 149 156 165 176 184 190 197 206 217 225 228 238 247 263 271 274 272 277 279 282 279 272 269 267 260 274 269 275 255 260 258 254 203 168 163
163 151 151 138 135 127 127 123 122 128 128 130 133 139 146 155 166 175 184 193 217 219 219 239 257 265 272 270 272 268 273 271 267 265 262 253 259 251 235 253 245 250 207 149 148 150 158
163 153 139 134 132 134 123 130 137 132 132 136 139 144 150 154 160 172 177 181 205 229 246 250 236 241 258 268 266 263 258 240 228 222 245 236 227 219 220 225 223 159 169 164 162 165 169
162 149 140 135 132 131 142 146 142 142 140 142 147 149 156 163 171 175 188 201 221 227 203 203 219 222 241 258 259 257 242 232 210 231 232 212 222 209 218 208 204 185 202 193 197 197 224
158 143 144 138 142 152 152 155 152 148 147 150 150 152 158 167 171 177 189 192 182 181 196 202 221 237 258 261 260 252 247 228 218 232 248 229 231 220 222 225 208 207 227 232 237 236 255
162 162 146 141 150 161 165 161 156 150 149 154 161 162 165 186 201 199 196 186 185 192 198 219 237 259 275 278 269 256 248 232 248 253 245 241 236 232 228 235 237 247 248 252 265 285 283
164 154 151 155 163 170 170 166 161 168 165 163 170 172 178 194 193 188 182 185 186 198 225 251 262 285 303 306 285 263 252 240 251 260 251 240 239 241 248 253 250 249 256 262 263 272 284
168 168 172 183 184 183 172 166 166 160 168 174 175 174 177 181 181 176 180 187 206 237 264 276 278 289 300 305 293 269 249 246 254 258 260 255 238 243 245 246 248 255 263 260 269 265 284
175 173 179 188 186 184 178 185 184 181 183 173 170 169 171 167 167 174 185 197 227 250 264 274 294 303 310 306 288 278 264 252 250 256 262 262 247 251 254 253 250 254 267 277 280 281 281
188 178 184 187 192 186 190 185 188 180 181 178 171 172 167 169 172 184 203 231 235 249 259 273 279 297 299 303 297 287 278 262 256 252 257 257 257 256 259 268 271 275 275 278 288 293 295
194 191 191 196 200 206 199 186 189 189 185 182 176 177 179 181 189 199 222 230 230 244 252 263 273 284 296 310 299 288 278 275 263 252 249 249 256 265 260 264 272 279 280 287 292 297 304
197 196 193 204 209 203 193 192 192 190 194 194 186 188 192 195 201 222 229 231 243 256 262 269 290 293 298 310 294 286 280 275 261 253 254 249 252 262 265 269 276 275 279 291 302 304 302
193 198 194 197 203 203 197 202 194 199 195 197 200 203 203 210 223 233 230 238 255 265 267 276 294 298 305 302 301 293 292 277 265 259 255 248 249 257 263 272 279 280 286 293 307 310 309
199 197 198 203 204 208 209 207 200 195 190 194 200 203 212 216 227 225 229 246 259 265 279 286 295 299 305 304 314 305 297 288 273 264 248 244 244 251 259 269 276 275 282 292 305 314 310
202 200 199 210 207 210 211 203 205 196 190 194 196 205 211 213 215 218 232 243 256 270 276 282 300 304 305 317 323 324 313 297 297 272 254 239 246 252 258 268 276 280 287 296 306 305 302
205 207 208 208 212 210 210 210 203 199 197 197 200 207 209 212 217 222 232 244 252 260 277 281 291 298 303 308 313 324 332 325 303 298 282 255 252 258 265 274 280 284 289 297 299 296 293
200 205 208 209 208 207 209 207 204 204 202 205 207 211 214 219 222 225 232 241 252 260 269 285 283 288 295 296 302 315 323 324 331 325 307 292 281 271 271 276 281 284 288 294 294 295 297
202 203 201 204 206 207 207 207 209 208 207 212 214 218 223 226 232 232 236 241 250 259 265 271 277 284 286 288 286 290 297 299 300 300 301 301 305 302 293 287 285 286 293 293 293 294 300
201 202 200 202 207 207 206 209 213 212 212 217 219 224 231 234 237 240 242 247 252 258 266 269 270 275 281 280 280 283 287 288 284 283 285 287 289 290 289 288 287 290 297 303 306 307 311
203 200 201 205 208 208 207 209 215 217 218 219 223 226 234 239 241 245 246 249 254 256 263 268 276 278 280 280 281 281 285 285 285 285 284 286 289 296 297 295 296 294 298 305 309 311 312
205 205 205 206 208 210 213 213 214 215 218 221 226 230 236 241 243 247 252 255 259 263 265 270 276 278 282 283 282 284 286 288 285 287 286 284 286 294 298 302 302 297 304 309 311 310 308
208 207 207 210 211 214 216 216 219 221 225 229 231 232 238 246 250 253 254 258 261 266 270 274 276 278 282 279 280 284 285 289 288 287 288 288 288 292 294 297 303 296 304 307 309 309 308
210 210 211 212 216 219 222 222 224 227 230 234 238 241 243 247 250 254 256 258 262 264 268 271 273 274 281 279 281 286 290 290 288 286 288 289 289 292 295 302 306 296 307 308 308 308 306
213 213 213 216 219 221 223 226 228 229 232 237 241 245 248 251 255 257 259 262 266 265 268 272 275 274 276 277 283 287 289 291 293 291 294 295 296 299 301 306 307 302 306 307 308 307 307
216 216 216 217 220 224 227 228 230 233 236 240 245 247 250 254 257 260 262 266 268 266 267 270 274 273 274 276 281 282 288 288 289 290 295 298 301 298 302 305 306 304 307 308 308 310 309
217 219 219 219 221 225 228 230 233 236 240 243 248 251 254 259 263 265 267 267 267 267 268 271 272 273 273 279 283 284 285 290 288 292 291 296 297 298 299 304 303 306 309 308 309 310 309
218 220 222 226 225 228 230 233 235 238 241 246 249 252 256 257 258 259 258 261 265 268 271 270 271 274 278 280 283 284 286 288 292 294 291 294 295 298 301 304 302 306 307 308 309 311 312
Height
10596 10596 10596 10595 10598 10600 10604 10607 10609 10613 10618 10624 10633 10641 10649 10657 10663 10671 10678 10685 10691 10697 10700 10702 10702 10707 10712 10716 10717 10718 10721 10723 10723 10722 10722 10725 10720 10719 10720 10716 10714 10715 10708 10706 10701 10698 10695
10596 10595 10596 10597 10600 10603 10606 10608 10613 10617 10622 10628 10635 10642 10650 10657 10663 10671 10677 10684 10689 10693 10696 10700 10702 10703 10704 10709 10714 10715 10713 10714 10714 10717 10717 10717 10713 10707 10707 10705 10703 10702 10700 10699 10694 10691 10688
10596 10595 10597 10600 10603 10605 10608 10612 10617 10622 10627 10632 10638 10645 10652 10659 10665 10671 10677 10683 10688 10690 10694 10697 10698 10698 10703 10707 10709 10709 10706 10707 10709 10710 10709 10703 10701 10700 10698 10697 10697 10699 10696 10690 10689 10689 10688
10596 10596 10599 10602 10605 10610 10613 10616 10622 10628 10632 10636 10642 10648 10654 10660 10666 10671 10677 10682 10686 10689 10693 10695 10697 10697 10698 10700 10702 10704 10702 10702 10702 10700 10701 10698 10696 10695 10697 10695 10692 10693 10692 10690 10689 10689 10688
10597 10598 10601 10604 10609 10614 10616 10622 10627 10631 10636 10641 10647 10652 10657 10662 10666 10671 10676 10681 10685 10688 10691 10693 10695 10695 10695 10696 10697 10699 10698 10698 10699 10698 10696 10695 10693 10692 10691 10692 10692 10690 10691 10690 10689 10688 10688
10598 10600 10603 10607 10611 10616 10622 10627 10631 10636 10640 10644 10649 10654 10658 10663 10668 10672 10676 10681 10684 10686 10688 10691 10693 10695 10695 10695 10695 10695 10696 10695 10695 10694 10694 10693 10691 10691 10692 10692 10691 10690 10690 10690 10689 10687 10687
10601 10602 10605 10609 10615 10621 10626 10631 10634 10638 10643 10647 10651 10656 10660 10665 10669 10673 10677 10679 10682 10684 10687 10689 10691 10693 10693 10694 10693 10693 10692 10692 10692 10692 10691 10691 10691 10691 10691 10690 10690 10689 10689 10688 10687 10687 10685
10600 10604 10605 10611 10617 10623 10628 10633 10636 10641 10645 10649 10653 10657 10662 10666 10669 10672 10676 10679 10682 10685 10687 10689 10690 10691 10691 10691 10690 10690 10690 10690 10690 10690 10690 10690 10690 10690 10688 10688 10688 10688 10688 10687 10687 10684 10682
10600 10603 10608 10614 10620 10625 10629 10634 10638 10642 10646 10650 10654 10658 10662 10665 10669 10673 10677 10680 10682 10684 10686 10687 10688 10689 10689 10688 10687 10687 10687 10687 10687 10688 10688 10688 10688 10688 10686 10686 10686 10686 10685 10684 10684 10684 10678
10600 10605 10610 10616 10621 10626 10630 10635 10638 10642 10646 10650 10654 10659 10662 10667 10670 10674 10676 10679 10680 10682 10683 10685 10686 10686 10686 10685 10684 10684 10683 10683 10683 10683 10685 10685 10685 10685 10684 10685 10685 10684 10683 10682 10680 10679 10675
10600 10605 10610 10615 10620 10625 10631 10635 10640 10644 10647 10652 10656 10661 10665 10668 10672 10674 10676 10677 10678 10681 10682 10683 10684 10683 10682 10682 10680 10679 10679 10679 10679 10679 10680 10681 10681 10682 10682 10681 10681 10680 10680 10678 10676 10674 10673
10600 10605 10609 10615 10620 10625 10630 10635 10640 10644 10648 10652 10657 10661 10664 10667 10670 10672 10674 10676 10678 10680 10681 10682 10681 10681 10680 10678 10676 10675 10673 10674 10674 10675 10675 10676 10676 10678 10678 10677 10675 10674 10674 10672 10669 10667 10667
10597 10603 10609 10613 10619 10623 10628 10633 10638 10643 10648 10652 10656 10659 10663 10666 10668 10671 10673 10675 10677 10678 10679 10678 10678 10677 10676 10674 10670 10668 10669 10669 10668 10669 10669 10669 10671 10672 10674 10673 10671 10669 10667 10666 10664 10662 10660
10592 10599 10605 10611 10617 10622 10626 10632 10637 10641 10646 10651 10655 10658 10661 10664 10667 10670 10671 10673 10674 10675 10675 10675 10674 10673 10672 10669 10665 10663 10662 10663 10661 10661 10663 10664 10665 10666 10668 10667 10667 10664 10662 10660 10660 10657 10653
10589 10596 10602 10609 10614 10619 10624 10630 10635 10639 10644 10649 10653 10656 10659 10662 10665 10667 10669 10670 10671 10671 10672 10672 10670 10669 10668 10666 10661 10659 10657 10656 10656 10657 10657 10658 10660 10660 10661 10661 10661 10659 10657 10656 10654 10652 10647
10584 10592 10599 10605 10611 10616 10622 10627 10632 10636 10640 10645 10650 10653 10657 10659 10662 10664 10666 10667 10668 10668 10669 10668 10666 10665 10664 10662 10660 10656 10654 10651 10650 10651 10651 10652 10655 10655 10654 10654 10653 10652 10651 10650 10648 10646 10643
10577 10586 10594 10600 10607 10613 10619 10624 10628 10633 10637 10642 10647 10650 10654 10656 10659 10661 10663 10664 10664 10664 10664 10664 10663 10662 10660 10658 10656 10653 10651 10649 10648 10646 10646 10647 10649 10650 10649 10647 10646 10646 10644 10643 10641 10637 10631
10572 10580 10588 10595 10602 10609 10614 10620 10625 10630 10635 10639 10643 10647 10650 10652 10655 10657 10659 10660 10660 10661 10661 10661 10660 10659 10657 10655 10653 10650 10649 10647 10646 10643 10642 10643 10645 10645 10645 10642 10639 10640 10638 10636 10634 10629 10623
10566 10573 10582 10590 10596 10603 10609 10614 10620 10626 10631 10635 10639 10643 10645 10648 10650 10652 10654 10655 10656 10657 10657 10657 10656 10655 10654 10653 10651 10649 10646 10644 10643 10641 10640 10638 10639 10641 10640 10637 10632 10629 10628 10628 10624 10621 10618
10559 10568 10576 10584 10591 10597 10603 10609 10615 10620 10625 10630 10635 10638 10640 10643 10646 10648 10649 10650 10651 10652 10652 10652 10653 10652 10650 10649 10647 10645 10643 10642 10640 10639 10636 10634 10634 10633 10633 10631 10625 10619 10619 10618 10616 10612 10609
10552 10561 10569 10578 10585 10591 10597 10603 10609 10614 10620 10625 10629 10632 10635 10638 10641 10642 10644 10645 10646 10647 10647 10647 10647 10646 10645 10644 10642 10641 10640 10638 10636 10634 10632 10630 10628 10626 10624 10623 10619 10611 10610 10603 10599 10596 10595
10545 10554 10563 10572 10579 10585 10590 10596 10603 10608 10614 10618 10623 10626 10628 10632 10634 10636 10637 10639 10640 10641 10641 10641 10641 10640 10639 10637 10636 10634 10633 10632 10628 10628 10627 10623 10622 10618 10611 10613 10609 10600 10599 10598 10591 10585 10580
10539 10548 10556 10564 10572 10578 10585 10591 10596 10601 10606 10610 10614 10618 10620 10624 10627 10629 10630 10632 10633 10634 10634 10634 10635 10634 10632 10630 10628 10627 10624 10622 10621 10619 10618 10616 10615 10613 10606 10601 10596 10587 10588 10586 10581 10572 10566
10531 10540 10548 10556 10564 10571 10577 10583 10589 10594 10598 10602 10605 10609 10612 10615 10619 10622 10623 10624 10626 10626 10625 10626 10626 10625 10624 10623 10621 10619 10617 10615 10612 10610 10607 10605 10604 10602 10600 10595 10590 10568 10579 10576 10572 10562 10550
10522 10531 10540 10548 10556 10563 10570 10576 10581 10586 10590 10593 10597 10601 10604 10607 10610 10613 10615 10616 10617 10618 10617 10616 10616 10616 10615 10614 10614 10611 10609 10607 10604 10600 10597 10595 10591 10589 10586 10586 10584 10558 10566 10561 10557 10552 10536
10513 10522 10530 10539 10547 10554 10560 10566 10571 10576 10580 10584 10587 10591 10594 10597 10600 10603 10604 10606 10607 10608 10608 10607 10606 10606 10606 10604 10604 10604 10601 10597 10594 10589 10584 10582 10579 10575 10571 10572 10570 10550 10551 10547 10543 10538 10524
10504 10512 10520 10529 10537 10543 10549 10556 10562 10567 10571 10575 10577 10580 10583 10586 10588 10591 10593 10595 10596 10596 10596 10597 10597 10596 10595 10594 10594 10594 10592 10587 10584 10577 10573 10567 10564 10558 10555 10552 10550 10537 10536 10529 10519 10514 10506
10495 10503 10511 10519 10526 10533 10539 10545 10551 10556 10560 10564 10567 10569 10572 10576 10578 10579 10581 10581 10581 10583 10585 10586 10587 10584 10585 10584 10584 10583 10582 10577 10573 10568 10560 10556 10551 10545 10541 10536 10526 10521 10518 10511 10502 10496 10482
10486 10494 10501 10509 10515 10521 10527 10534 10540 10545 10549 10553 10556 10560 10562 10564 10565 10564 10563 10567 10571 10572 10574 10575 10574 10573 10575 10573 10572 10571 10570 10566 10562 10558 10545 10544 10532 10532 10524 10523 10507 10504 10496 10487 10480 10472 10460